Regional Weather Roundup
Issued by NWS

Home | Current Version | Previous Version | Text Only | Print | Product List | Glossary Off
Versions: 1 2 3 4 5 6 7 8 9 10 11 12 13 14 15 16 17 18 19 20 21 22 23 24 25 26 27 28 29 30 31 32 33 34 35 36 37 38 39 40 41 42 43 44 45 46 47 48 49 50

781
ASUS44 KJAN 282303
RWRMS

MISSISSIPPI HOURLY WEATHER ROUNDUP
NATIONAL WEATHER SERVICE JACKSON MS
600 PM CDT THU AUG 28 2014

NOTE: "FAIR: INDICATES FEW OR NO CLOUDS BELOW 12,000 FEET WITH NO
SIGNIFICANT WEATHER AND/OR OBSTRUCTIONS TO VISIBILITY.

MSZ001>002-007>008-010>013-018>021-025>028-034>036-290000-
NORTHWEST MISSISSIPPI

CITY           SKY/WX    TMP DP  RH WIND       PRES   REMARKS
CLARKSDALE     FAIR      91  64  40 CALM      29.93F HX  93
CLEVELAND      FAIR      91  66  43 CALM      29.91F HX  94
GREENWOOD      SUNNY     88  68  51 CALM      29.92F HX  91
GREENVILLE     SUNNY     92  64  39 CALM      29.91S HX  93
GRENADA        FAIR      88  61  40 NW3       29.93F
OLIVE BRANCH   PTSUNNY   90  64  43 S7        29.94F HX  91
OXFORD         FAIR      90  64  43 W6        29.96S HX  91
TUNICA         CLEAR     91  55  29 SE5       29.94S
$$

MSZ003>006-009-014>017-022>024-029>033-037>039-290000-
NORTHEAST MISSISSIPPI

CITY           SKY/WX    TMP DP  RH WIND       PRES   REMARKS
BELMONT        FAIR      89  67  47 CALM      29.96S HX  91
COLUMBUS AFB   MOSUNNY   94  56  27 SW5       29.93F HX  92
CORINTH        FAIR      90  68  48 S7        29.94S HX  93
GOLDN TRIANGLE MOSUNNY   91  59  33 E9        29.94F HX  90
STARKVILLE     FAIR      91  59  33 CALM      29.93S HX  90
TUPELO         MOSUNNY   91  59  33 MISG      29.94S HX  90
$$

MSZ040-058-290000-
CENTRAL MISSISSIPPI

CITY           SKY/WX    TMP DP  RH WIND       PRES   REMARKS
JACKSON INTL   PTSUNNY   88  70  55 W7        29.93S HX  93
JACKSON HAWKNS PTSUNNY   86  69  56 W6        29.94S HX  90
MERIDIAN KEY   PTSUNNY   88  64  44 S7        29.94F
MERIDIAN NAS   PTSUNNY   88  62  41 S5        29.94S
RAYMOND        FAIR      84  79  84 SW5       29.94S HX  96
VICKSBURG      PTSUNNY   81  72  74 N3        29.93F
$$

MSZ059>079-290000-
SOUTH MISSISSIPPI

CITY           SKY/WX    TMP DP  RH WIND       PRES   REMARKS
BROOKHAVEN     FAIR      88  70  55 CALM      29.95F HX  92
COLUMBIA       FAIR      88  70  55 CALM      29.92S HX  92
HATTIESBURG    PTSUNNY   89  70  53 S8        29.94S HX  94
MCCOMB         MOSUNNY   88  68  51 S6        29.93F HX  91
NATCHEZ        SUNNY     88  73  62 CALM      29.93F HX  96
PINE BELT      MOSUNNY  N/A N/A N/A SE8       29.95S
$$

MSZ080>082-290000-
COASTAL MISSISSIPPI

CITY           SKY/WX    TMP DP  RH WIND       PRES   REMARKS
BAY ST LOUIS   MOSUNNY  N/A N/A N/A SE6       29.93F
BILOXI         PTSUNNY   87  70  56 SE5       29.94S HX  92
PASCAGOULA     PTSUNNY   83  68  60 NE5       29.94F
GULFPORT       PTSUNNY   87  69  54 SE8       29.93F HX  91
$$



USA.gov is the U.S. government's official web portal to all federal, state and local government web resources and services.